Capo Bellavista, Italy

10:54 PM CET on January 17, 2017 (GMT +0100)
Capo Bellavista

Weather History for LIEB - December, 2013

Change the Weather History Date:

Saturday, December 21, 2013

  Actual Average Record
Temperature  
Mean Temperature 61 °F -  
Max Temperature 72 °F 57 °F - ()
Min Temperature 50 °F 48 °F - ()
Degree Days  
Heating Degree Days 4    
Growing Degree Days 11 (Base 50)    
Moisture  
Dew Point 51 °F    
Average Humidity 81    
Maximum Humidity 88    
Minimum Humidity 64    
Precipitation  
Precipitation 0.00 in 0.06 in - ()
Sea Level Pressure  
Sea Level Pressure 30.50 in    
Wind  
Wind Speed 7 mph ()    
Max Wind Speed 12 mph    
Max Gust Speed -    
Visibility 9.1 miles    
Events      
T = Trace of Precipitation, MM = Missing Value Source: Averaged Metar Reports

Daily Weather History Graph

Daily Weather History Graph

Search for Another Location

Airport or City:

Trip Planner

Search our weather history database for the weather conditions in past years. The results will help you decide how hot, cold, wet, or windy it might be!

Date:

Astronomy

Dec. 21, 2013 Rise Set
Actual Time 7:39 AM CET 4:59 PM CET
Civil Twilight 7:08 AM CET 5:29 PM CET
Nautical Twilight 6:34 AM CET 6:03 PM CET
Astronomical Twilight 6:01 AM CET 6:36 PM CET
Moon 9:00 PM CET (12/21) 9:56 AM CET (12/21)
Length of Visible Light 10h 21m
Length of Day
9h 20m
Waning Gibbous, 86% of the Moon is Illuminated
Dec 21
Waning Gibbous
Dec 25
Last Quarter
Jan 1
New
Jan 8
First Quarter
Jan 16
Full

Hourly Weather History & Observations

Time (CET) Temp. Dew Point Humidity Pressure Visibility Wind Dir Wind Speed Gust Speed Precip Events Conditions
12:00 AM 56 °F 53 °F 85% 30.43 in 12 mi SSE 8.1 mph - -   Overcast
12:55 AM 57.2 °F 53.6 °F 88% 30.42 in 6.2 mi SSW 8.1 mph - N/A   Scattered Clouds
1:00 AM 57 °F 53 °F 82% 30.44 in 12 mi SSW 8.1 mph - -   Partly Cloudy
1:55 AM 57.2 °F 53.6 °F 88% 30.42 in 6.2 mi SW 6.9 mph - N/A   Scattered Clouds
2:00 AM 57 °F 53 °F 84% 30.44 in 12 mi SW 6.9 mph - -   Overcast
2:55 AM 55.4 °F 50.0 °F 82% 30.45 in 6.2 mi NW 5.8 mph - N/A   Scattered Clouds
3:00 AM 55 °F 49 °F 75% 30.46 in 12 mi NW 5.8 mph - -   Partly Cloudy
3:55 AM 55.4 °F 50.0 °F 82% 30.48 in 6.2 mi WNW 8.1 mph - N/A   Scattered Clouds
4:00 AM 55 °F 49 °F 75% 30.49 in 12 mi WNW 8.1 mph - -   Partly Cloudy
4:55 AM 55.4 °F 51.8 °F 88% 30.45 in 6.2 mi NW 8.1 mph - N/A   Partly Cloudy
5:00 AM 55 °F 51 °F 83% 30.48 in 12 mi NW 8.1 mph - -   Scattered Clouds
5:55 AM 55.4 °F 50.0 °F 82% 30.45 in 6.2 mi NW 9.2 mph - N/A   Partly Cloudy
6:00 AM 55 °F 51 °F 81% 30.48 in 12 mi NW 9.2 mph - -   Scattered Clouds
6:55 AM 55.4 °F 51.8 °F 88% 30.48 in 6.2 mi NW 5.8 mph - N/A   Partly Cloudy
7:00 AM 56 °F 52 °F 80% 30.49 in 12 mi NW 5.8 mph - -   Scattered Clouds
7:55 AM 53.6 °F 50.0 °F 88% 30.48 in 6.2 mi NW 5.8 mph - N/A   Partly Cloudy
8:00 AM 54 °F 50 °F 81% 30.51 in 12 mi NW 5.8 mph - -   Scattered Clouds
8:55 AM 53.6 °F 48.2 °F 82% 30.51 in 6.2 mi NNW 8.1 mph - N/A   Scattered Clouds
9:00 AM 54 °F 49 °F 76% 30.52 in 12 mi NNW 8.1 mph - -   Partly Cloudy
9:55 AM 59.0 °F 53.6 °F 82% 30.54 in 6.2 mi WNW 5.8 mph - N/A   Scattered Clouds
10:00 AM 59 °F 54 °F 77% 30.54 in 12 mi WNW 5.8 mph - -   Mostly Cloudy
10:55 AM 59.0 °F 53.6 °F 82% 30.54 in 6.2 mi NNE 2.3 mph - N/A   Scattered Clouds
11:00 AM 59 °F 54 °F 78% 30.55 in 6 mi NNE 2.3 mph - -   Partly Cloudy
11:55 AM 59.0 °F 53.6 °F 82% 30.54 in 6.2 mi ESE 4.6 mph - N/A   Scattered Clouds
12:00 PM 59 °F 54 °F 78% 30.54 in 12 mi ESE 4.6 mph - -   Partly Cloudy
12:55 PM 62.6 °F 55.4 °F 77% 30.51 in 6.2 mi East 4.6 mph - N/A   Partly Cloudy
1:00 PM 62 °F 55 °F 73% 30.51 in 12 mi East 4.6 mph - -   Scattered Clouds
1:55 PM 60.8 °F 53.6 °F 77% 30.48 in 6.2 mi East 4.6 mph - N/A   Partly Cloudy
2:00 PM 60 °F 54 °F 74% 30.50 in 12 mi East 4.6 mph - -   Scattered Clouds
2:55 PM 59.0 °F 50.0 °F 72% 30.48 in 6.2 mi East 6.9 mph - N/A   Partly Cloudy
3:00 PM 59 °F 50 °F 64% 30.50 in 12 mi East 6.9 mph - -   Scattered Clouds
3:55 PM 57.2 °F 48.2 °F 72% 30.48 in 6.2 mi East 8.1 mph - N/A   Partly Cloudy
4:00 PM 57 °F 49 °F 67% 30.50 in 12 mi East 8.1 mph - -   Scattered Clouds
4:55 PM 57.2 °F 50.0 °F 77% 30.48 in 6.2 mi East 9.2 mph - N/A   Scattered Clouds
5:00 PM 56 °F 50 °F 74% 30.50 in 12 mi East 9.2 mph - -   Partly Cloudy
5:55 PM 55.4 °F 51.8 °F 88% 30.51 in 6.2 mi East 11.5 mph - N/A   Partly Cloudy
6:00 PM 55 °F 52 °F 84% 30.52 in 12 mi East 11.5 mph - -   Scattered Clouds
6:55 PM 55.4 °F 51.8 °F 88% 30.51 in - East 11.5 mph - N/A   Clear
7:00 PM 55 °F 52 °F 84% 30.52 in 12 mi East 11.5 mph - -  
7:55 PM 55.4 °F 51.8 °F 88% 30.51 in - ESE 8.1 mph - N/A   Clear
8:00 PM 55 °F 51 °F 81% 30.52 in 12 mi ESE 8.1 mph - -  
8:55 PM 55.4 °F 50.0 °F 82% 30.51 in 6.2 mi East 8.1 mph - N/A   Scattered Clouds
9:00 PM 55 °F 51 °F 80% 30.52 in 12 mi East 8.1 mph - -   Mostly Cloudy
9:55 PM 53.6 °F 50.0 °F 88% 30.51 in 6.2 mi NNW 4.6 mph - N/A   Scattered Clouds
10:00 PM 53 °F 49 °F 82% 30.52 in 12 mi NNW 4.6 mph - -   Partly Cloudy
10:55 PM 53.6 °F 50.0 °F 88% 30.51 in 6.2 mi NW 10.4 mph - N/A   Scattered Clouds
11:00 PM 53 °F 49 °F 84% 30.52 in 12 mi NW 10.4 mph - -   Partly Cloudy
11:55 PM 51.8 °F 48.2 °F 88% 30.51 in 6.2 mi NW 9.2 mph - N/A   Scattered Clouds